K9BM Weather Reports


time (UTC)temp
F
wind
direction
speed
knots
gust
knots
rain 1hr
in
rain 24hr
in
rain mn
in
humidity
%
barometer
mb
20260902204506 81 155 5.2 10.4 0.00 0.00 0.00 22 999.0
20260902204005 82 170 5.2 8.7 0.00 0.00 0.00 22 999.0
20260902203006 82 232 4.3 12.2 0.00 0.00 0.00 23 999.2
20260902202506 80 121 6.1 12.2 0.00 0.00 0.00 23 999.3
20260902202006 80 55 2.6 10.4 0.00 0.00 0.00 24 999.3
20260902201505 79 165 1.7 8.7 0.00 0.00 0.00 25 999.4
20260902200006 78 256 6.1 12.2 0.00 0.00 0.00 27 999.7
20260902195006 77 243 5.2 10.4 0.00 0.00 0.00 29 1000.1
20260902194505 76 193 4.3 11.3 0.00 0.00 0.00 31 1000.3
20260902194006 75 230 6.1 11.3 0.00 0.00 0.00 31 1000.3
20260902193505 74 241 5.2 13.9 0.00 0.00 0.00 35 1000.5
20260902192505 74 249 11.3 18.2 0.00 0.00 0.00 35 1000.3
20260902192005 76 275 10.4 18.2 0.00 0.00 0.00 35 1000.3
20260902191506 77 312 9.6 13.0 0.00 0.00 0.00 30 1000.1
20260902191006 78 246 7.0 13.0 0.00 0.00 0.00 24 1000.2
20260902190006 78 217 5.2 8.7 0.00 0.00 0.00 25 1000.2
20260902185506 78 201 3.5 13.0 0.00 0.00 0.00 30 1000.2
20260902185006 79 305 6.1 13.0 0.00 0.00 0.00 30 1000.2
20260902184506 78 246 6.1 12.2 0.00 0.00 0.00 26 1000.3
20260902184005 77 231 2.6 6.1 0.00 0.00 0.00 32 1000.4
20260902183505 77 92 0.9 8.7 0.00 0.00 0.00 34 1000.5
20260902181506 74 21 0.0 2.6 0.00 0.00 0.00 39 1000.8
20260902181006 73 13 0.0 0.0 0.00 0.00 0.00 40 1001.0
20260902180007 71 12 0.0 2.6 0.00 0.00 0.00 42 1001.0
20260902175505 71 3 0.9 5.2 0.00 0.00 0.00 44 1001.1
20260902175006 70 335 1.7 5.2 0.00 0.00 0.00 45 1001.3
20260902174506 70 321 1.7 6.1 0.00 0.00 0.00 44 1001.3
20260902174006 70 315 2.6 7.0 0.00 0.00 0.00 45 1001.3
20260902173506 70 312 3.5 7.0 0.00 0.00 0.00 44 1001.4
20260902173006 70 308 0.0 4.3 0.00 0.00 0.00 45 1001.4
20260902172505 70 305 0.0 0.0 0.00 0.00 0.00 44 1001.5
20260902172006 70 305 0.0 0.0 0.00 0.00 0.00 44 1001.5
20260902171505 70 305 0.0 0.0 0.00 0.00 0.00 44 1001.5
20260902170005 71 75 0.0 2.6 0.00 0.00 0.00 43 1001.5
20260902165505 71 75 0.0 4.3 0.00 0.00 0.00 42 1001.5
20260902165006 72 75 1.7 6.1 0.00 0.00 0.00 42 1001.5
20260902164505 72 75 3.5 8.7 0.00 0.00 0.00 42 1001.3
20260902163506 71 55 3.5 8.7 0.00 0.00 0.00 43 1001.3
20260902163006 71 41 0.9 4.3 0.00 0.00 0.00 43 1001.5
20260902162006 70 302 0.0 2.6 0.00 0.00 0.00 44 1001.5
20260902161505 70 302 1.7 2.6 0.00 0.00 0.00 44 1001.5
20260902161005 69 308 0.9 2.6 0.00 0.00 0.00 45 1001.5
20260902160008 69 277 0.9 4.3 0.00 0.00 0.00 46 1001.6
20260902155505 68 315 1.7 6.1 0.00 0.00 0.00 45 1001.6
20260902155005 68 279 2.6 6.1 0.00 0.00 0.00 45 1001.7
20260902154506 68 288 2.6 6.1 0.00 0.00 0.00 46 1001.7
20260902154006 68 294 1.7 6.1 0.00 0.00 0.00 46 1001.8
20260902153005 67 277 2.6 7.0 0.00 0.00 0.00 47 1001.9
20260902152505 67 276 2.6 7.0 0.00 0.00 0.00 48 1002.0
20260902151506 66 276 4.3 7.8 0.00 0.00 0.00 51 1002.2
20260902150006 62 275 6.1 10.4 0.00 0.00 0.00 58 1002.3
20260902145505 61 268 6.1 10.4 0.00 0.00 0.00 60 1002.3
20260902144505 61 277 6.1 10.4 0.00 0.00 0.00 60 1002.2
20260902144006 61 273 7.0 8.7 0.00 0.00 0.00 60 1002.3
20260902143506 61 286 6.1 8.7 0.00 0.00 0.00 60 1002.3
20260902143005 61 283 5.2 7.0 0.00 0.00 0.00 60 1002.3
20260902142005 60 271 2.6 6.1 0.00 0.00 0.00 61 1002.6
20260902141505 60 268 3.5 6.1 0.00 0.00 0.00 61 1002.5
20260902141006 60 282 4.3 6.1 0.00 0.00 0.00 61 1002.5
20260902140005 60 264 0.9 7.0 0.00 0.00 0.00 61 1002.6
20260902135507 60 264 2.6 7.8 0.00 0.00 0.00 61 1002.7
20260902135005 60 255 4.3 8.7 0.00 0.00 0.00 60 1002.8
20260902134505 60 248 5.2 8.7 0.00 0.00 0.00 60 1002.9
20260902134006 61 261 6.1 7.8 0.00 0.00 0.00 60 1002.8
20260902133005 60 266 5.2 7.8 0.00 0.00 0.00 61 1002.6
20260902132505 59 273 5.2 7.0 0.00 0.00 0.00 63 1002.6
20260902132006 58 178 2.6 6.1 0.00 0.00 0.00 65 1002.4
20260902131006 57 167 4.3 6.1 0.00 0.00 0.00 66 1002.4
20260902130005 57 240 2.6 7.8 0.00 0.00 0.00 65 1002.4
20260902125506 57 246 6.1 7.8 0.00 0.00 0.00 65 1002.5
20260902125005 57 259 6.1 8.7 0.00 0.00 0.00 65 1002.7
20260902124505 58 257 6.1 10.4 0.00 0.00 0.00 64 1002.8
20260902124005 58 254 7.0 10.4 0.00 0.00 0.00 63 1002.9
20260902123505 59 260 8.7 10.4 0.00 0.00 0.00 62 1003.0
20260902122505 58 262 7.0 10.4 0.00 0.00 0.00 62 1002.8
20260902121506 58 257 6.1 10.4 0.00 0.00 0.00 62 1002.9
20260902121005 58 243 8.7 10.4 0.00 0.00 0.00 61 1003.1
20260902115505 60 239 6.1 8.7 0.00 0.00 0.00 59 1003.1
20260902115005 60 240 5.2 7.8 0.00 0.00 0.00 59 1003.3
20260902114506 60 232 5.2 7.8 0.00 0.00 0.00 59 1003.2
20260902114006 60 231 5.2 10.4 0.00 0.00 0.00 58 1003.1
20260902113506 61 235 5.2 10.4 0.00 0.00 0.00 58 1003.2
20260902113006 60 243 7.8 10.4 0.00 0.00 0.00 58 1003.2
20260902112505 61 245 7.0 8.7 0.00 0.00 0.00 58 1003.2
20260902111505 61 244 5.2 7.8 0.00 0.00 0.00 57 1003.2
20260902111005 61 257 5.2 7.8 0.00 0.00 0.00 57 1003.3
20260902110007 61 239 3.5 7.8 0.00 0.00 0.00 58 1003.5
20260902105505 61 193 6.1 8.7 0.00 0.00 0.00 58 1003.5
20260902105006 61 199 4.3 10.4 0.00 0.00 0.00 58 1003.5
20260902104506 62 231 5.2 11.3 0.00 0.00 0.00 58 1003.6
20260902104005 61 236 7.0 11.3 0.00 0.00 0.00 58 1003.7
20260902103505 61 231 7.0 10.4 0.00 0.00 0.00 58 1003.9
20260902103005 62 232 5.2 8.7 0.00 0.00 0.00 58 1003.9
20260902102505 62 230 5.2 10.4 0.00 0.00 0.00 58 1003.8
20260902102006 62 230 6.1 10.4 0.00 0.00 0.00 57 1004.1
20260902101505 62 231 6.1 10.4 0.00 0.00 0.00 57 1004.0
20260902101006 62 232 6.1 12.2 0.00 0.00 0.00 57 1004.0
20260902100005 63 237 7.8 19.1 0.00 0.00 0.00 55 1004.3
20260902095505 63 241 11.3 19.1 0.00 0.00 0.00 53 1004.2
20260902095005 64 234 8.7 15.6 0.00 0.00 0.00 52 1004.2
20260902094505 64 233 9.6 15.6 0.00 0.00 0.00 52 1004.2
20260902094005 64 235 8.7 14.8 0.00 0.00 0.00 51 1004.1
20260902093505 64 246 8.7 17.4 0.00 0.00 0.00 51 1004.2
20260902093005 64 248 13.9 17.4 0.00 0.00 0.00 52 1004.4
20260902092505 64 253 11.3 13.9 0.00 0.00 0.00 52 1004.3
20260902092005 63 267 9.6 13.0 0.00 0.00 0.00 53 1004.3
20260902091505 64 278 7.8 12.2 0.00 0.00 0.00 52 1004.1
20260902091005 64 283 7.0 11.3 0.00 0.00 0.00 51 1004.1
20260902090005 65 264 10.4 15.6 0.00 0.00 0.00 49 1004.1
20260902085505 64 267 7.8 13.0 0.00 0.00 0.00 51 1004.3
20260902085005 64 263 7.0 13.9 0.00 0.00 0.00 54 1004.6
20260902084506 64 269 10.4 13.9 0.00 0.00 0.00 53 1004.7
20260902084006 64 236 7.0 10.4 0.00 0.00 0.00 53 1004.7
20260902083006 64 269 7.0 8.7 0.00 0.00 0.00 55 1004.6
20260902082505 64 283 6.1 8.7 0.00 0.00 0.00 55 1004.6
20260902080005 64 273 7.8 11.3 0.00 0.00 0.00 53 1004.3
20260902075505 64 260 7.0 10.4 0.00 0.00 0.00 54 1004.4
20260902075005 63 266 6.1 12.2 0.00 0.00 0.00 55 1004.5
20260902074505 63 253 6.1 13.9 0.00 0.00 0.00 54 1004.4
20260902074005 63 265 10.4 13.9 0.00 0.00 0.00 54 1004.5
20260902073005 62 244 7.8 10.4 0.00 0.00 0.00 57 1003.9
20260902072505 62 244 7.0 7.8 0.00 0.00 0.00 57 1003.8
20260902072005 62 214 2.6 4.3 0.00 0.00 0.00 56 1003.7
20260902071505 62 208 0.9 5.2 0.00 0.00 0.00 56 1003.7
20260902071005 62 208 4.3 5.2 0.00 0.00 0.00 56 1003.7
20260902070007 62 205 1.7 2.6 0.00 0.00 0.00 58 1003.8
20260902065505 62 204 0.0 2.6 0.00 0.00 0.00 58 1003.9
20260902065005 62 204 1.7 2.6 0.00 0.00 0.00 58 1004.0
20260902064505 62 204 1.7 4.3 0.00 0.00 0.00 58 1003.9
20260902064005 62 204 2.6 5.2 0.00 0.00 0.00 58 1003.9
20260902063005 61 185 2.6 8.7 0.00 0.00 0.00 60 1004.0
20260902062505 60 175 6.1 8.7 0.00 0.00 0.00 60 1004.0
20260902062005 61 164 6.1 8.7 0.00 0.00 0.00 58 1004.0
20260902061505 62 166 7.0 8.7 0.00 0.00 0.00 57 1003.9
20260902061005 62 230 4.3 4.3 0.00 0.00 0.00 57 1003.8
20260902060005 62 234 3.5 5.2 0.00 0.00 0.00 56 1003.8
20260902055505 62 237 2.6 5.2 0.00 0.00 0.00 55 1003.8
20260902055005 62 223 5.2 5.2 0.00 0.00 0.00 56 1003.9
20260902054506 62 180 2.6 2.6 0.00 0.00 0.00 55 1004.0
20260902054005 62 179 1.7 5.2 0.00 0.00 0.00 55 1004.0
20260902053005 63 179 3.5 4.3 0.00 0.00 0.00 52 1004.2
20260902052505 63 178 1.7 4.3 0.00 0.00 0.00 52 1004.2
20260902052006 63 177 2.6 4.3 0.00 0.00 0.00 52 1004.3
20260902051505 63 177 2.6 5.2 0.00 0.00 0.00 52 1004.2
20260902051006 63 176 2.6 7.0 0.00 0.00 0.00 52 1004.3
20260902050007 64 146 2.6 4.3 0.00 0.00 0.00 52 1004.1
20260902045005 65 234 2.6 4.3 0.00 0.00 0.00 51 1004.0
20260902044505 66 234 3.5 5.2 0.00 0.00 0.00 50 1004.1
20260902044005 66 229 4.3 5.2 0.00 0.00 0.00 50 1004.1
20260902043505 66 230 4.3 5.2 0.00 0.00 0.00 50 1004.1
20260902043006 65 226 4.3 5.2 0.00 0.00 0.00 51 1004.1
20260902042505 65 227 3.5 7.0 0.00 0.00 0.00 51 1004.1
20260902042005 65 202 4.3 7.0 0.00 0.00 0.00 51 1004.0
20260902041505 65 200 5.2 7.0 0.00 0.00 0.00 51 1004.1
20260902041005 65 199 5.2 7.8 0.00 0.00 0.00 51 1004.0
20260902040005 65 198 6.1 7.8 0.00 0.00 0.00 51 1004.1
20260902035505 65 200 5.2 7.8 0.00 0.00 0.00 51 1004.2
20260902035005 65 200 4.3 7.0 0.00 0.00 0.00 52 1004.3
20260902034506 65 203 4.3 7.0 0.00 0.00 0.00 52 1004.3
20260902034005 65 204 3.5 5.2 0.00 0.00 0.00 52 1004.4
20260902033505 65 216 2.6 6.1 0.00 0.00 0.00 51 1004.4
20260902033005 66 211 4.3 6.1 0.00 0.00 0.00 51 1004.4
20260902032005 66 206 2.6 6.1 0.00 0.00 0.00 50 1004.3
20260902031505 66 199 4.3 6.1 0.00 0.00 0.00 50 1004.3
20260902031005 67 223 2.6 6.1 0.00 0.00 0.00 49 1004.3
20260902030005 67 212 4.3 7.8 0.00 0.00 0.00 48 1004.2
20260902025505 68 196 6.1 7.8 0.00 0.00 0.00 48 1004.2
20260902025005 68 203 3.5 6.1 0.00 0.00 0.00 47 1004.2
20260902024505 68 213 5.2 6.1 0.00 0.00 0.00 47 1004.2
20260902024005 69 235 4.3 7.8 0.00 0.00 0.00 47 1004.2
20260902023505 69 231 5.2 7.8 0.00 0.00 0.00 46 1004.1
20260902023005 68 231 4.3 7.0 0.00 0.00 0.00 46 1004.1
20260902022005 69 232 3.5 6.1 0.00 0.00 0.00 45 1003.8
20260902021505 69 223 3.5 6.1 0.00 0.00 0.00 45 1003.7
20260902021005 70 196 3.5 6.1 0.00 0.00 0.00 44 1003.5
20260902020005 71 228 1.7 4.3 0.00 0.00 0.00 44 1003.4
20260902015504 72 240 0.9 4.3 0.00 0.00 0.00 44 1003.4
20260902015005 72 314 0.0 2.6 0.00 0.00 0.00 44 1003.3
20260902014505 72 314 0.9 2.6 0.00 0.00 0.00 43 1003.4
20260902014005 73 314 1.7 2.6 0.00 0.00 0.00 43 1003.4
20260902013505 73 314 1.7 4.3 0.00 0.00 0.00 42 1003.4
20260902013005 74 314 2.6 4.3 0.00 0.00 0.00 41 1003.4
20260902012505 75 314 2.6 4.3 0.00 0.00 0.00 39 1003.4
20260902012005 76 314 2.6 2.6 0.00 0.00 0.00 37 1003.4
20260902011505 77 315 0.0 2.6 0.00 0.00 0.00 35 1003.5
20260902011005 78 315 0.9 5.2 0.00 0.00 0.00 34 1003.5
20260902010005 80 315 3.5 5.2 0.00 0.00 0.00 33 1003.6
20260902005505 81 183 1.7 4.3 0.00 0.00 0.00 31 1003.6
20260902004505 80 181 2.6 5.2 0.00 0.00 0.00 30 1003.6
20260902004005 80 163 0.9 6.1 0.00 0.00 0.00 31 1003.6
20260902002505 80 193 2.6 6.1 0.00 0.00 0.00 30 1003.6
20260902002005 79 195 4.3 7.8 0.00 0.00 0.00 31 1003.5
20260902001505 79 190 5.2 7.8 0.00 0.00 0.00 31 1003.7
20260902001005 80 202 4.3 7.0 0.00 0.00 0.00 30 1003.7
20260902000005 80 172 2.6 10.4 0.00 0.00 0.00 31 1003.8
20260901235504 80 141 6.1 11.3 0.00 0.00 0.00 32 1003.8
20260901234505 80 131 2.6 10.4 0.00 0.00 0.00 31 1003.9
20260901234005 80 121 6.1 11.3 0.00 0.00 0.00 32 1003.9
20260901233505 80 139 3.5 11.3 0.00 0.00 0.00 32 1003.9
20260901233005 80 144 6.1 10.4 0.00 0.00 0.00 32 1003.9
20260901232505 80 145 5.2 10.4 0.00 0.00 0.00 32 1004.0
20260901232005 80 150 1.7 11.3 0.00 0.00 0.00 33 1004.0
20260901231505 79 160 3.5 11.3 0.00 0.00 0.00 32 1004.1
20260901231005 79 130 6.1 8.7 0.00 0.00 0.00 33 1004.1
20260901230005 79 152 0.0 5.2 0.00 0.00 0.00 33 1004.4
20260901225504 79 141 0.9 10.4 0.00 0.00 0.00 33 1004.4
20260901225005 79 144 4.3 13.9 0.00 0.00 0.00 32 1004.5
20260901224005 80 158 7.0 10.4 0.00 0.00 0.00 33 1004.5
20260901223504 79 195 5.2 12.2 0.00 0.00 0.00 33 1004.7
20260901223006 78 171 5.2 12.2 0.00 0.00 0.00 34 1004.7
20260901222505 77 172 4.3 7.8 0.00 0.00 0.00 35 1004.7
20260901222005 76 158 1.7 7.0 0.00 0.00 0.00 37 1004.7
20260901221005 75 222 1.7 8.7 0.00 0.00 0.00 42 1004.8
20260901220005 74 247 6.1 8.7 0.00 0.00 0.00 40 1005.0
20260901215504 74 271 5.2 10.4 0.00 0.00 0.00 40 1005.0
20260901215004 74 266 6.1 11.3 0.00 0.00 0.00 40 1005.0
20260901214505 74 273 7.8 11.3 0.00 0.00 0.00 40 1005.0
20260901213505 75 271 7.8 12.2 0.00 0.00 0.00 38 1005.2
20260901213005 76 273 8.7 12.2 0.00 0.00 0.00 36 1005.2
20260901212505 76 257 7.0 11.3 0.00 0.00 0.00 36 1005.3
20260901211505 76 281 5.2 11.3 0.00 0.00 0.00 37 1005.3
20260901211005 76 266 7.8 11.3 0.00 0.00 0.00 37 1005.4
20260901210005 76 273 6.1 10.4 0.00 0.00 0.00 36 1005.5
20260901205504 76 275 6.1 10.4 0.00 0.00 0.00 37 1005.5
20260901205005 75 252 7.0 10.4 0.00 0.00 0.00 36 1005.5